tititudorancea.com
Station Historical Data
Daily Summary for October 28, 2018 Units:  Metric    English   Both
« Previous Day
Next Day »
Daily Weekly Monthly Yearly Custom
  High: Low: Average:
Temperature: -17.8 °C 2.8 °C 10.3 °C
Dew Point: -17.8 °C 1.8 °C 4.2 °C
Humidity: Humidity % 36 % 70 %
Wind Speed: 0 km/h 5.6 km/h 16.7 km/h
Wind Gust: 0 km/h - -
Wind:- - South
Pressure: 0 hPa 1015.8 hPa -
Precipitation: 0.2 mm    
Historical Graphs
 
 
Ararat weather Find more about Weather in Ararat, AU


 



 


Tabular Data for October 28, 2018
Time Temperature Dew Point Pressure Wind Wind Speed Wind Gust Humidity Rainfall Rate (Hourly)
-17.8 °C -17.8 °C 0 hPa Calm     Humidity % 0 mm
00:04 7 °C 5.3 °C 1019.2 hPa South 9.3 km/h 4.7 km/h 89 % 0 mm
00:09 6.8 °C 5.2 °C 1018.8 hPa South 6.4 km/h 4.8 km/h 89 % 0 mm
00:14 6.7 °C 5.1 °C 1018.8 hPa South 6.4 km/h 5.6 km/h 89 % 0 mm
00:19 6.6 °C 4.9 °C 1018.8 hPa South 8 km/h 3.7 km/h 89 % 0 mm
00:24 6.5 °C 4.8 °C 1018.8 hPa South 9.3 km/h 5 km/h 89 % 0 mm
00:29 6.4 °C 4.9 °C 1018.8 hPa South 7.4 km/h 1.4 km/h 90 % 0 mm
00:34 6.3 °C 4.8 °C 1018.8 hPa North 5.6 km/h 6.4 km/h 90 % 0 mm
00:39 6.2 °C 4.7 °C 1019.2 hPa South 5.6 km/h 1.4 km/h 90 % 0 mm
00:44 6.1 °C 4.6 °C 1018.8 hPa North 5.6 km/h 2.7 km/h 90 % 0 mm
00:49 6.1 °C 4.6 °C 1018.8 hPa North 9.3 km/h 5.5 km/h 90 % 0 mm
00:54 6 °C 4.5 °C 1019.2 hPa South 11.1 km/h 7.1 km/h 90 % 0 mm
00:59 5.9 °C 4.4 °C 1019.2 hPa South 6.4 km/h 2.4 km/h 90 % 0 mm
01:04 5.9 °C 4.6 °C 1018.8 hPa North 5.6 km/h 2.4 km/h 91 % 0 mm
01:09 5.8 °C 4.5 °C 1018.8 hPa South 7.4 km/h 2.7 km/h 91 % 0 mm
01:14 5.8 °C 4.4 °C 1019.2 hPa South 9.3 km/h 2.3 km/h 91 % 0 mm
01:19 5.8 °C 4.4 °C 1019.2 hPa South 6.4 km/h 4.5 km/h 91 % 0 mm
01:24 5.7 °C 4.4 °C 1019.2 hPa South 6.4 km/h 4.2 km/h 91 % 0 mm
01:29 5.7 °C 4.3 °C 1018.8 hPa South 6.4 km/h 4.2 km/h 91 % 0 mm
01:34 5.6 °C 4.3 °C 1019.2 hPa North 7.4 km/h 5 km/h 91 % 0 mm
01:39 5.6 °C 4.3 °C 1019.2 hPa South 7.4 km/h 3.1 km/h 91 % 0 mm
01:44 5.6 °C 4.2 °C 1018.8 hPa South 5.6 km/h 3.5 km/h 91 % 0 mm
01:49 5.6 °C 4.2 °C 1018.8 hPa South 9.3 km/h 5.3 km/h 91 % 0 mm
01:54 5.5 °C 4.2 °C 1018.8 hPa South 5.6 km/h 1.8 km/h 91 % 0 mm
01:59 5.4 °C 4.1 °C 1018.8 hPa South 7.4 km/h 4.7 km/h 91 % 0 mm
02:04 5.4 °C 4.1 °C 1018.8 hPa South 7.4 km/h 4.5 km/h 91 % 0 mm
02:09 5.4 °C 4.2 °C 1018.5 hPa North 7.4 km/h 2.9 km/h 92 % 0 mm
02:14 5.3 °C 3.9 °C 1018.5 hPa South 8 km/h 7.1 km/h 91 % 0 mm
02:19 5.2 °C 3.9 °C 1018.5 hPa South 5.6 km/h 3.2 km/h 91 % 0 mm
02:24 5.2 °C 4 °C 1018.5 hPa North 13 km/h 4 km/h 92 % 0 mm
02:29 5.1 °C 3.9 °C 1018.5 hPa South 11.3 km/h 4.8 km/h 92 % 0 mm
02:34 5.1 °C 3.9 °C 1018.5 hPa South 9.3 km/h 4.7 km/h 92 % 0 mm
02:39 5.1 °C 3.9 °C 1018.5 hPa South 13 km/h 5.6 km/h 92 % 0 mm
02:44 5.1 °C 3.9 °C 1018.2 hPa North 11.1 km/h 7.7 km/h 92 % 0 mm
02:49 5.1 °C 3.9 °C 1018.2 hPa South 11.1 km/h 3.4 km/h 92 % 0 mm
02:54 5 °C 3.8 °C 1018.2 hPa South 7.4 km/h 4.7 km/h 92 % 0 mm
02:59 5 °C 3.8 °C 1018.2 hPa South 7.4 km/h 5 km/h 92 % 0 mm
03:04 4.9 °C 3.8 °C 1018.2 hPa South 7.4 km/h 3.2 km/h 92 % 0 mm
03:09 4.9 °C 3.9 °C 1018.2 hPa South 7.4 km/h 5.8 km/h 93 % 0 mm
03:14 4.9 °C 4.7 °C 1018.2 hPa North 7.4 km/h 6.4 km/h 98 % 0 mm
03:19 5 °C 3.9 °C 1018.5 hPa South 6.4 km/h 4.5 km/h 93 % 0 mm
03:24 4.9 °C 3.9 °C 1018.2 hPa South 7.4 km/h 5 km/h 93 % 0 mm
03:29 4.9 °C 3.9 °C 1018.5 hPa North 9.3 km/h 3.9 km/h 93 % 0 mm
03:34 4.9 °C 3.9 °C 1018.5 hPa South 7.4 km/h 7.1 km/h 93 % 0 mm
03:39 5 °C 3.9 °C 1018.5 hPa North 9.3 km/h 6.6 km/h 93 % 0 mm
03:44 5.1 °C 4 °C 1018.5 hPa North 6.4 km/h 5 km/h 93 % 0 mm
03:49 5.1 °C 4 °C 1018.2 hPa South 9.3 km/h 6.8 km/h 93 % 0 mm
03:54 5.1 °C 4 °C 1018.2 hPa South 9.3 km/h 7.4 km/h 93 % 0 mm
03:59 5.1 °C 4 °C 1018.2 hPa North 13 km/h 6.4 km/h 93 % 0 mm
04:04 5 °C 3.9 °C 1018.2 hPa North 13 km/h 7.1 km/h 93 % 0 mm
04:09 4.9 °C 4.7 °C 1018.2 hPa South 9.3 km/h 6.4 km/h 98 % 0 mm
04:14 4.9 °C 3.8 °C 1018.5 hPa South 11.1 km/h 7.4 km/h 93 % 0 mm
04:19 4.8 °C 3.8 °C 1018.2 hPa North 9.7 km/h 8.5 km/h 93 % 0 mm
04:24 4.8 °C 3.7 °C 1018.2 hPa South 14.8 km/h 7.2 km/h 93 % 0 mm
04:29 4.8 °C 3.7 °C 1018.2 hPa South 7.4 km/h 6.6 km/h 93 % 0 mm
04:34 4.8 °C 3.7 °C 1018.2 hPa South 9.7 km/h 7.4 km/h 93 % 0 mm
04:39 4.7 °C 3.7 °C 1018.2 hPa South 5.6 km/h 4.2 km/h 93 % 0 mm
04:44 4.7 °C 3.6 °C 1018.2 hPa South 9.3 km/h 6.3 km/h 93 % 0 mm
04:49 4.6 °C 3.6 °C 1018.2 hPa South 7.4 km/h 5.3 km/h 93 % 0 mm
04:54 4.4 °C 3.4 °C 1018.2 hPa North 9.7 km/h 6 km/h 93 % 0 mm
04:59 4.4 °C 3.3 °C 1018.2 hPa North 5.6 km/h 6 km/h 93 % 0 mm
05:04 4.3 °C 3.2 °C 1018.2 hPa South 8 km/h 7.2 km/h 93 % 0 mm
05:09 4.2 °C 3.2 °C 1018.5 hPa South 8 km/h 5.6 km/h 93 % 0 mm
05:14 4.2 °C 3.1 °C 1018.2 hPa South 9.3 km/h 7.6 km/h 93 % 0 mm
05:19 4.1 °C 3.1 °C 1018.2 hPa South 11.1 km/h 7.6 km/h 93 % 0 mm
05:24 4 °C 2.9 °C 1018.2 hPa South 5.6 km/h 3.7 km/h 93 % 0 mm
05:29 3.9 °C 2.9 °C 1018.2 hPa North 6.4 km/h 6 km/h 93 % 0 mm
05:34 3.8 °C 2.8 °C 1018.2 hPa South 9.3 km/h 5.5 km/h 93 % 0 mm
05:39 3.7 °C 2.7 °C 1018.2 hPa South 7.4 km/h 6.3 km/h 93 % 0 mm
05:44 3.7 °C 2.7 °C 1018.2 hPa South 8 km/h 6.3 km/h 93 % 0 mm
05:49 3.6 °C 2.6 °C 1018.2 hPa South 9.3 km/h 5.5 km/h 93 % 0 mm
05:54 3.4 °C 2.4 °C 1018.5 hPa South 6.4 km/h 4.2 km/h 93 % 0 mm
05:59 3.3 °C 2.3 °C 1018.5 hPa South 5.6 km/h 3.1 km/h 93 % 0 mm
06:04 3.2 °C 2.2 °C 1018.5 hPa South 9.3 km/h 5.5 km/h 93 % 0 mm
06:09 3.1 °C 2.1 °C 1018.5 hPa South 6.4 km/h 3.9 km/h 93 % 0 mm
06:14 3 °C 2 °C 1018.5 hPa North 9.7 km/h 3.5 km/h 93 % 0 mm
06:19 2.9 °C 1.9 °C 1018.2 hPa South 9.3 km/h 4 km/h 93 % 0 mm
06:24 2.8 °C 1.8 °C 1018.2 hPa North 7.4 km/h 5 km/h 93 % 0 mm
06:29 2.8 °C 1.9 °C 1018.5 hPa South 5.6 km/h 2.7 km/h 94 % 0 mm
06:34 2.8 °C 1.8 °C 1018.5 hPa South 9.3 km/h 6.4 km/h 93 % 0 mm
06:39 2.8 °C 1.9 °C 1018.5 hPa South 7.4 km/h 3.7 km/h 94 % 0 mm
06:44 2.8 °C 1.9 °C 1018.5 hPa South 8 km/h 4.8 km/h 94 % 0.2 mm
06:49 2.9 °C 2.1 °C 1018.5 hPa South 9.7 km/h 7.7 km/h 94 % 0.2 mm
06:54 3.1 °C 2.2 °C 1018.5 hPa South 13 km/h 5 km/h 94 % 0.2 mm
06:59 3.2 °C 2.3 °C 1018.8 hPa South 9.3 km/h 6.1 km/h 94 % 0.2 mm
07:04 3.3 °C 2.4 °C 1018.8 hPa South 7.4 km/h 4 km/h 94 % 0.2 mm
07:09 3.4 °C 2.6 °C 1018.8 hPa South 6.4 km/h 5.6 km/h 94 % 0.2 mm
07:14 3.6 °C 2.7 °C 1018.8 hPa South 9.7 km/h 7.4 km/h 94 % 0.2 mm
07:19 3.7 °C 2.8 °C 1018.8 hPa South 13 km/h 7.2 km/h 94 % 0.2 mm
07:24 3.8 °C 2.9 °C 1018.8 hPa North 16.7 km/h 5.8 km/h 94 % 0.2 mm
07:29 4 °C 3.1 °C 1018.8 hPa South 16.7 km/h 10.3 km/h 94 % 0.2 mm
07:34 4.3 °C 3.4 °C 1018.8 hPa South 14.8 km/h 8.5 km/h 94 % 0.2 mm
07:39 4.6 °C 3.5 °C 1018.8 hPa South 19.3 km/h 11.3 km/h 93 % 0.2 mm
07:44 4.7 °C 3.6 °C 1018.8 hPa South 14.5 km/h 9.2 km/h 92 % 0 mm
07:49 5 °C 3.8 °C 1018.8 hPa South 16.7 km/h 11.1 km/h 92 % 0 mm
07:54 5.3 °C 3.9 °C 1019.2 hPa South 18.5 km/h 10.3 km/h 91 % 0 mm
07:59 5.7 °C 4.2 °C 1018.8 hPa SSE 9.3 km/h 10 km/h 90 % 0 mm
08:04 6 °C 4.3 °C 1018.8 hPa SSE 16.7 km/h 11.6 km/h 89 % 0 mm
08:09 6.2 °C 4.2 °C 1019.2 hPa South 18.5 km/h 12.4 km/h 87 % 0 mm
08:14 6.3 °C 4.3 °C 1019.2 hPa South 13 km/h 8.9 km/h 87 % 0 mm
08:19 6.6 °C 4.4 °C 1019.2 hPa SSE 18.5 km/h 11.3 km/h 86 % 0 mm
08:24 6.9 °C 4.6 °C 1019.2 hPa SE 19.3 km/h 14.6 km/h 85 % 0 mm
08:29 7 °C 4.3 °C 1019.2 hPa South 20.4 km/h 14.3 km/h 83 % 0 mm
08:34 7.2 °C 4.3 °C 1019.2 hPa SSE 19.3 km/h 16.1 km/h 82 % 0 mm
08:39 7.4 °C 4.3 °C 1019.2 hPa SSE 16.7 km/h 11.7 km/h 81 % 0 mm
08:44 7.6 °C 4.2 °C 1019.2 hPa South 22.2 km/h 22.2 km/h 79 % 0 mm
08:49 7.8 °C 4.2 °C 1019.2 hPa South 20.9 km/h 17.5 km/h 78 % 0 mm
08:54 8 °C 4.2 °C 1019.2 hPa SSE 24.1 km/h 14.3 km/h 77 % 0 mm
08:59 8.3 °C 4.3 °C 1019.2 hPa SSE 20.4 km/h 14.3 km/h 76 % 0 mm
09:04 8.7 °C 4.3 °C 1019.2 hPa SE 22.2 km/h 15.6 km/h 74 % 0 mm
09:09 9 °C 4.4 °C 1019.2 hPa SSE 18.5 km/h 17.2 km/h 73 % 0 mm
09:14 9.2 °C 4.4 °C 1019.2 hPa SSE 24.1 km/h 13.5 km/h 72 % 0 mm
09:19 9.5 °C 4.1 °C 1019.2 hPa SE 24.1 km/h 13.7 km/h 69 % 0 mm
09:24 9.4 °C 4 °C 1019.2 hPa SSE 22.5 km/h 15.8 km/h 69 % 0 mm
09:29 9.4 °C 3.8 °C 1019.2 hPa SE 33.3 km/h 20.6 km/h 68 % 0 mm
09:34 9.4 °C 4 °C 1019.2 hPa South 25.7 km/h 13.2 km/h 69 % 0 mm
09:39 9.3 °C 3.7 °C 1019.5 hPa SE 24.1 km/h 16.6 km/h 68 % 0 mm
09:44 9.3 °C 3.7 °C 1019.2 hPa SSE 29.6 km/h 21.9 km/h 68 % 0 mm
09:49 9.3 °C 3.7 °C 1019.2 hPa South 25.9 km/h 20 km/h 68 % 0 mm
09:54 9.4 °C 4.1 °C 1019.2 hPa SSE 27.8 km/h 18 km/h 69 % 0 mm
09:59 9.7 °C 4.5 °C 1019.2 hPa SSE 16.1 km/h 12.4 km/h 70 % 0 mm
10:04 10.1 °C 4.1 °C 1019.2 hPa SSE 31.5 km/h 18.7 km/h 66 % 0 mm
10:09 10.2 °C 3.9 °C 1019.2 hPa South 29.6 km/h 19.2 km/h 65 % 0 mm
10:14 10.5 °C 3.9 °C 1019.2 hPa South 37 km/h 12.1 km/h 64 % 0 mm
10:19 10.7 °C 4.2 °C 1019.2 hPa SSE 20.9 km/h 15.6 km/h 64 % 0 mm
10:24 10.7 °C 3.7 °C 1019.2 hPa South 25.9 km/h 16.9 km/h 62 % 0 mm
10:29 11.1 °C 4.1 °C 1019.2 hPa SE 31.5 km/h 15 km/h 62 % 0 mm
10:34 11.3 °C 4.5 °C 1019.2 hPa SE 18.5 km/h 12.7 km/h 63 % 0 mm
10:39 11.4 °C 4.4 °C 1019.2 hPa SSE 22.2 km/h 15.9 km/h 62 % 0 mm
10:44 11.7 °C 4.7 °C 1019.2 hPa SSE 27.8 km/h 15.6 km/h 62 % 0 mm
10:49 11.9 °C 4.7 °C 1019.2 hPa SSE 22.2 km/h 14 km/h 61 % 0 mm
10:54 12.1 °C 4.5 °C 1019.2 hPa South 25.9 km/h 17.9 km/h 60 % 0 mm
10:59 12 °C 4.4 °C 1019.2 hPa SSE 18.5 km/h 10.6 km/h 60 % 0 mm
11:04 12.2 °C 4.4 °C 1019.2 hPa SE 20.4 km/h 16.4 km/h 59 % 0 mm
11:09 12.4 °C 4.8 °C 1019.2 hPa SSE 18.5 km/h 10 km/h 60 % 0 mm
11:14 12.6 °C 4.6 °C 1019.2 hPa SSE 22.2 km/h 17.5 km/h 58 % 0 mm
11:19 12.6 °C 4.6 °C 1018.8 hPa SSE 27.8 km/h 12.1 km/h 58 % 0 mm
11:24 12.9 °C 4.8 °C 1018.8 hPa SE 29.6 km/h 10 km/h 58 % 0 mm
11:29 13.5 °C 4.9 °C 1018.8 hPa SE 27.4 km/h 17.9 km/h 56 % 0 mm
11:34 13.5 °C 4.4 °C 1018.8 hPa South 27.8 km/h 20 km/h 54 % 0 mm
11:39 13.4 °C 4.3 °C 1018.8 hPa SE 27.8 km/h 18 km/h 54 % 0 mm
11:44 13.5 °C 4.4 °C 1018.8 hPa South 18.5 km/h 13.5 km/h 54 % 0 mm
11:49 13.8 °C 4.3 °C 1018.8 hPa SE 22.2 km/h 17.5 km/h 53 % 0 mm
11:54 13.8 °C 4.1 °C 1018.8 hPa SSE 24.1 km/h 11.7 km/h 52 % 0 mm
11:59 13.8 °C 4.3 °C 1018.5 hPa SE 22.2 km/h 18.7 km/h 53 % 0 mm
12:04 13.9 °C 4.5 °C 1018.5 hPa SSE 22.2 km/h 11.7 km/h 53 % 0 mm
12:09 14.1 °C 4.4 °C 1018.5 hPa SSE 20.4 km/h 16.1 km/h 52 % 0 mm
12:14 14.1 °C 3.8 °C 1018.5 hPa SSE 24.1 km/h 14.8 km/h 50 % 0 mm
12:19 14 °C 4 °C 1018.5 hPa SE 24.1 km/h 12.1 km/h 51 % 0 mm
12:24 14.7 °C 4.4 °C 1018.2 hPa South 18.5 km/h 14.3 km/h 50 % 0 mm
12:29 14.8 °C 4.7 °C 1018.2 hPa SSE 24.1 km/h 12.4 km/h 51 % 0 mm
12:34 15.1 °C 4.8 °C 1018.2 hPa SSE 18.5 km/h 10.9 km/h 50 % 0 mm
12:39 15.1 °C 4.2 °C 1018.2 hPa South 16.1 km/h 15.6 km/h 48 % 0 mm
12:44 14.9 °C 4.3 °C 1018.2 hPa SSE 22.2 km/h 11.7 km/h 49 % 0 mm
12:49 15.1 °C 4.7 °C 1017.8 hPa SE 12.9 km/h 13.2 km/h 50 % 0 mm
12:54 15.6 °C 4.6 °C 1017.8 hPa SE 18.5 km/h 13.5 km/h 48 % 0 mm
12:59 15.6 °C 4.3 °C 1017.8 hPa South 18.5 km/h 12.4 km/h 47 % 0 mm
13:04 15.7 °C 4.4 °C 1017.8 hPa SE 24.1 km/h 14.6 km/h 47 % 0 mm
13:09 15.8 °C 4.6 °C 1017.8 hPa SSE 14.8 km/h 14 km/h 47 % 0 mm
13:14 16 °C 3.7 °C 1017.8 hPa South 18.5 km/h 13.4 km/h 44 % 0 mm
13:19 15.7 °C 4.7 °C 1017.8 hPa SSE 11.1 km/h 11.7 km/h 48 % 0 mm
13:24 16.2 °C 4.8 °C 1017.8 hPa SSE 24.1 km/h 13.7 km/h 47 % 0 mm
13:29 16.2 °C 4.5 °C 1017.5 hPa SE 13 km/h 9.8 km/h 46 % 0 mm
13:34 16.4 °C 5.1 °C 1017.8 hPa SE 18.5 km/h 14.6 km/h 47 % 0 mm
13:39 16.6 °C 4.3 °C 1017.5 hPa SE 11.1 km/h 9.7 km/h 44 % 0 mm
13:44 16.6 °C 4.6 °C 1017.5 hPa SSE 20.4 km/h 13 km/h 45 % 0 mm
13:49 16.4 °C 3.8 °C 1017.5 hPa SSW 19.3 km/h 13.5 km/h 43 % 0 mm
13:54 16.4 °C 4.8 °C 1017.5 hPa South 14.8 km/h 9.3 km/h 46 % 0 mm
13:59 16.7 °C 4.7 °C 1017.5 hPa SSE 14.8 km/h 8.7 km/h 45 % 0 mm
14:04 16.8 °C 4.4 °C 1017.2 hPa SSE 16.7 km/h 11.6 km/h 44 % 0 mm
14:09 17 °C 4 °C 1017.2 hPa South 14.8 km/h 7.2 km/h 42 % 0 mm
14:14 17 °C 4.3 °C 1017.2 hPa SSE 16.1 km/h 10.5 km/h 43 % 0 mm
14:19 17.4 °C 4.7 °C 1017.2 hPa SSE 16.7 km/h 19.5 km/h 43 % 0 mm
14:24 17.1 °C 4.4 °C 1017.2 hPa SSE 22.2 km/h 10.9 km/h 43 % 0 mm
14:29 17.4 °C 5 °C 1017.2 hPa SE 22.5 km/h 10.8 km/h 44 % 0 mm
14:34 17.8 °C 5 °C 1016.8 hPa SSE 27.8 km/h 13.5 km/h 43 % 0 mm
14:39 17.7 °C 3.9 °C 1016.8 hPa SSE 20.4 km/h 13.7 km/h 40 % 0 mm
14:44 17.7 °C 4.3 °C 1016.8 hPa SSW 20.9 km/h 11.9 km/h 41 % 0 mm
14:49 17.6 °C 3.8 °C 1016.8 hPa SSE 18.5 km/h 7.4 km/h 40 % 0 mm
14:54 17.6 °C 4.2 °C 1016.8 hPa South 20.4 km/h 11.7 km/h 41 % 0 mm
14:59 17.7 °C 4.6 °C 1016.5 hPa South 16.1 km/h 15.9 km/h 42 % 0 mm
15:04 17.9 °C 3.7 °C 1016.8 hPa South 20.4 km/h 10.8 km/h 39 % 0 mm
15:09 17.9 °C 2.6 °C 1016.5 hPa South 14.8 km/h 10.8 km/h 36 % 0 mm
15:14 17.7 °C 3.2 °C 1016.5 hPa SSE 16.7 km/h 11.1 km/h 38 % 0 mm
15:19 17.8 °C 4 °C 1016.5 hPa South 22.2 km/h 10 km/h 40 % 0 mm
15:24 18 °C 4.6 °C 1016.5 hPa SSE 16.7 km/h 10.8 km/h 41 % 0 mm
15:29 17.9 °C 4.1 °C 1016.5 hPa South 13 km/h 12.2 km/h 40 % 0 mm
15:34 18.1 °C 3.9 °C 1016.5 hPa SE 18.5 km/h 12.1 km/h 39 % 0 mm
15:39 18.3 °C 4.4 °C 1016.1 hPa SE 14.8 km/h 9.2 km/h 40 % 0 mm
15:44 18.4 °C 4.6 °C 1016.1 hPa SSE 17.7 km/h 10.6 km/h 40 % 0 mm
15:49 18.3 °C 3.8 °C 1016.1 hPa South 16.7 km/h 13.4 km/h 38 % 0 mm
15:54 18.3 °C 3.8 °C 1016.1 hPa SSE 18.5 km/h 7.9 km/h 38 % 0 mm
15:59 18.3 °C 3.8 °C 1016.1 hPa South 20.4 km/h 10.6 km/h 38 % 0 mm
16:04 18.3 °C 3.7 °C 1016.1 hPa SSW 14.8 km/h 10.9 km/h 38 % 0 mm
16:09 18.4 °C 4.2 °C 1016.1 hPa SE 24.1 km/h 17.4 km/h 39 % 0 mm
16:14 18.4 °C 3.8 °C 1016.1 hPa SSE 14.8 km/h 8.4 km/h 38 % 0 mm
16:19 18.5 °C 4.3 °C 1016.1 hPa South 18.5 km/h 8.2 km/h 39 % 0 mm
16:24 18.6 °C 4.4 °C 1016.1 hPa South 18.5 km/h 16.7 km/h 39 % 0 mm
16:29 18.4 °C 3.8 °C 1015.8 hPa SSW 25.9 km/h 10.3 km/h 38 % 0 mm
16:34 18.5 °C 3.9 °C 1015.8 hPa South 20.4 km/h 13.5 km/h 38 % 0 mm
16:39 18.3 °C 3.8 °C 1015.8 hPa SSW 18.5 km/h 15 km/h 38 % 0 mm
16:44 18.2 °C 3.7 °C 1015.8 hPa SSW 22.2 km/h 17.9 km/h 38 % 0 mm
16:49 18.2 °C 4.4 °C 1015.8 hPa SSE 18.5 km/h 5.6 km/h 40 % 0 mm
16:54 18.6 °C 4.4 °C 1015.8 hPa SSE 20.4 km/h 13.8 km/h 39 % 0 mm
16:59 18.4 °C 4.6 °C 1015.8 hPa SSE 16.7 km/h 11.9 km/h 40 % 0 mm
17:04 18.4 °C 3.8 °C 1015.8 hPa SSE 24.1 km/h 11.9 km/h 38 % 0 mm
17:09 18.2 °C 4.4 °C 1015.8 hPa SSE 29.6 km/h 12.7 km/h 40 % 0 mm
17:14 18.3 °C 4.1 °C 1015.8 hPa SSE 18.5 km/h 12.2 km/h 39 % 0 mm
17:19 18.1 °C 3.6 °C 1015.8 hPa South 18.5 km/h 10.8 km/h 38 % 0 mm
17:24 18.2 °C 4.4 °C 1015.8 hPa SSE 18.5 km/h 12.1 km/h 40 % 0 mm
17:29 18.4 °C 4.2 °C 1015.8 hPa South 18.5 km/h 14.5 km/h 39 % 0 mm
17:34 18.5 °C 4.6 °C 1015.8 hPa South 16.1 km/h 9 km/h 40 % 0 mm
17:39 18.3 °C 4.1 °C 1015.8 hPa South 24.1 km/h 15.8 km/h 39 % 0 mm
17:44 18.1 °C 4.2 °C 1015.8 hPa South 18.5 km/h 11.7 km/h 40 % 0 mm
17:49 18.1 °C 4.6 °C 1015.8 hPa South 25.9 km/h 19 km/h 41 % 0 mm
17:54 17.9 °C 4.4 °C 1015.8 hPa SSW 18.5 km/h 14.2 km/h 41 % 0 mm
17:59 17.8 °C 5.1 °C 1015.8 hPa SSE 24.1 km/h 9.7 km/h 43 % 0 mm
18:04 17.8 °C 4.7 °C 1016.1 hPa SSE 20.4 km/h 10.5 km/h 42 % 0 mm
18:09 17.6 °C 4.2 °C 1016.1 hPa South 22.2 km/h 11.9 km/h 41 % 0 mm
18:14 17.4 °C 4.1 °C 1016.1 hPa SSE 16.7 km/h 14.8 km/h 41 % 0 mm
18:19 17.3 °C 4.6 °C 1016.1 hPa South 22.5 km/h 16.6 km/h 43 % 0 mm
18:24 17.2 °C 4.5 °C 1016.1 hPa South 20.4 km/h 15.6 km/h 43 % 0 mm
18:29 17.1 °C 4.4 °C 1016.1 hPa South 14.8 km/h 10.9 km/h 43 % 0 mm
18:34 17.1 °C 4.4 °C 1016.1 hPa South 18.5 km/h 10 km/h 43 % 0 mm
18:39 17 °C 4.7 °C 1016.1 hPa South 16.7 km/h 11.9 km/h 44 % 0 mm
18:44 17 °C 4.9 °C 1016.1 hPa South 16.1 km/h 14 km/h 45 % 0 mm
18:49 16.7 °C 5.1 °C 1016.1 hPa South 24.1 km/h 14.6 km/h 46 % 0 mm
18:54 16.5 °C 4.8 °C 1016.5 hPa South 22.2 km/h 14.5 km/h 46 % 0 mm
18:59 16.4 °C 4.7 °C 1016.5 hPa South 18.5 km/h 10.6 km/h 46 % 0 mm
19:04 16.3 °C 5.3 °C 1016.5 hPa South 17.7 km/h 12.1 km/h 48 % 0 mm
19:09 16.2 °C 5.4 °C 1016.5 hPa SSW 24.1 km/h 10.6 km/h 49 % 0 mm
19:14 15.9 °C 5.4 °C 1016.5 hPa SSW 20.4 km/h 10.1 km/h 50 % 0 mm
19:19 15.7 °C 5.3 °C 1016.5 hPa South 18.5 km/h 11.4 km/h 50 % 0 mm
19:24 15.6 °C 5.4 °C 1016.5 hPa South 18.5 km/h 7.6 km/h 51 % 0 mm
19:29 15.3 °C 5.5 °C 1016.8 hPa South 13 km/h 9.7 km/h 52 % 0 mm
19:34 15.2 °C 5.4 °C 1016.8 hPa South 9.3 km/h 4.8 km/h 52 % 0 mm
19:39 14.9 °C 5.4 °C 1016.8 hPa South 18.5 km/h 11.4 km/h 53 % 0 mm
19:44 14.7 °C 5.4 °C 1016.8 hPa South 11.1 km/h 7.9 km/h 54 % 0 mm
19:49 14.4 °C 5.4 °C 1016.8 hPa South 13 km/h 7.6 km/h 55 % 0 mm
19:54 14.2 °C 5.5 °C 1016.8 hPa South 13 km/h 3.4 km/h 56 % 0 mm
19:59 13.8 °C 5.4 °C 1017.2 hPa SSW 25.7 km/h 20.4 km/h 57 % 0 mm
20:04 13.3 °C 6.4 °C 1017.2 hPa SSW 18.5 km/h 8.9 km/h 63 % 0 mm
20:09 12.8 °C 6.6 °C 1017.2 hPa SSW 20.4 km/h 16.1 km/h 66 % 0 mm
20:14 12.5 °C 6.8 °C 1017.2 hPa SSW 20.4 km/h 13.2 km/h 68 % 0 mm
20:19 12.2 °C 6.7 °C 1017.2 hPa SSW 22.2 km/h 14.3 km/h 69 % 0 mm
20:24 11.9 °C 6.6 °C 1017.5 hPa SSW 24.1 km/h 12.7 km/h 70 % 0 mm
20:29 11.6 °C 6.5 °C 1017.5 hPa South 24.1 km/h 16.1 km/h 71 % 0 mm
20:34 11.3 °C 6.4 °C 1017.5 hPa South 24.1 km/h 13.4 km/h 72 % 0 mm
20:39 11 °C 6.2 °C 1017.5 hPa South 18.5 km/h 13 km/h 72 % 0 mm
20:44 10.8 °C 6.1 °C 1017.5 hPa South 25.9 km/h 18 km/h 73 % 0 mm
20:49 10.5 °C 5.9 °C 1017.8 hPa South 20.4 km/h 14.5 km/h 73 % 0 mm
20:54 10.3 °C 5.8 °C 1017.8 hPa South 20.4 km/h 16.6 km/h 74 % 0 mm
20:59 10.1 °C 5.7 °C 1017.8 hPa SSW 31.5 km/h 16.1 km/h 74 % 0 mm
21:04 9.9 °C 5.7 °C 1017.8 hPa South 25.9 km/h 12.2 km/h 75 % 0 mm
21:09 9.7 °C 5.4 °C 1018.2 hPa SSW 20.4 km/h 14.8 km/h 75 % 0 mm
21:14 9.5 °C 5.5 °C 1018.2 hPa South 17.7 km/h 14 km/h 76 % 0 mm
21:19 9.3 °C 5.4 °C 1018.2 hPa South 25.9 km/h 14 km/h 77 % 0 mm
21:24 9.1 °C 5.3 °C 1018.2 hPa South 18.5 km/h 10.9 km/h 77 % 0 mm
21:29 8.9 °C 5.3 °C 1018.2 hPa South 22.2 km/h 12.4 km/h 78 % 0 mm
21:34 8.8 °C 5.2 °C 1018.2 hPa SSW 25.9 km/h 13.5 km/h 78 % 0 mm
21:39 8.7 °C 5.1 °C 1018.2 hPa South 20.9 km/h 15.8 km/h 78 % 0 mm
21:44 8.5 °C 5.1 °C 1018.2 hPa SSW 18.5 km/h 11.4 km/h 79 % 0 mm
21:49 8.4 °C 4.9 °C 1018.5 hPa SSW 22.2 km/h 17.4 km/h 79 % 0 mm
21:54 8.3 °C 5.1 °C 1018.5 hPa SSW 29.6 km/h 14.8 km/h 80 % 0 mm
21:59 8.2 °C 4.9 °C 1018.5 hPa SSW 20.4 km/h 14.3 km/h 80 % 0 mm
22:04 8.1 °C 4.8 °C 1018.5 hPa South 20.4 km/h 13.2 km/h 80 % 0 mm
22:09 7.9 °C 4.9 °C 1018.5 hPa South 20.4 km/h 9.5 km/h 81 % 0 mm
22:14 7.8 °C 4.8 °C 1018.5 hPa South 22.2 km/h 11.3 km/h 81 % 0 mm
22:19 7.8 °C 4.7 °C 1018.5 hPa South 20.4 km/h 11.3 km/h 81 % 0 mm
22:24 7.7 °C 4.6 °C 1018.5 hPa South 18.5 km/h 8.9 km/h 81 % 0 mm
22:29 7.6 °C 4.6 °C 1018.5 hPa SSW 20.9 km/h 14.2 km/h 81 % 0 mm
22:34 7.5 °C 4.4 °C 1018.5 hPa SSW 22.2 km/h 11.6 km/h 81 % 0 mm
22:39 7.4 °C 4.3 °C 1018.8 hPa SSW 25.9 km/h 12.9 km/h 81 % 0 mm
22:44 7.3 °C 4.4 °C 1018.8 hPa South 18.5 km/h 9.8 km/h 82 % 0 mm
22:49 7.2 °C 4.3 °C 1018.8 hPa SSW 19.3 km/h 12.1 km/h 82 % 0 mm
22:54 7.2 °C 4.3 °C 1018.8 hPa SSW 17.7 km/h 16.3 km/h 82 % 0 mm
22:59 7.1 °C 4.2 °C 1018.8 hPa SSW 20.4 km/h 11.7 km/h 82 % 0 mm
23:04 7.1 °C 4.4 °C 1018.8 hPa SSW 18.5 km/h 12.1 km/h 83 % 0 mm
23:09 6.9 °C 4.3 °C 1018.8 hPa SSW 18.5 km/h 14.5 km/h 83 % 0 mm
23:14 6.9 °C 4.2 °C 1018.8 hPa SSW 24.1 km/h 14.6 km/h 83 % 0 mm
23:19 6.8 °C 4.2 °C 1018.8 hPa SSW 18.5 km/h 15.3 km/h 83 % 0 mm
23:24 6.8 °C 4.3 °C 1018.8 hPa South 18.5 km/h 11.1 km/h 84 % 0 mm
23:29 6.8 °C 4.3 °C 1018.8 hPa SSW 20.9 km/h 11.4 km/h 84 % 0 mm
23:34 6.7 °C 4.2 °C 1018.8 hPa SSW 18.5 km/h 15.6 km/h 84 % 0 mm
23:39 6.7 °C 4.2 °C 1018.8 hPa SSW 20.9 km/h 15 km/h 84 % 0 mm
23:44 6.7 °C 4.2 °C 1018.8 hPa SSW 25.9 km/h 16.7 km/h 84 % 0 mm
23:49 6.6 °C 4.1 °C 1018.8 hPa SSW 25.9 km/h 13.4 km/h 84 % 0 mm
23:54 6.5 °C 4 °C 1018.8 hPa SSW 18.5 km/h 11.4 km/h 84 % 0 mm
23:59 6.4 °C 3.9 °C 1018.8 hPa SSW 16.7 km/h 12.4 km/h 84 % 0 mm
Ararat Weather
Compliments of Weather Underground - 2.25 mb
Click here to send mail.


ABOUT

Live weather data from Ararat, Victoria, Australia, 3377
Data uploaded from Cumulus every 5 minutes to Weather Underground.
This site then downloads the raw data for formatting and display.
Metric and imperial data can be displayed. Graphs and historical data available.
Includes Sun and Moon times and rain image live from BOM.

Check out Ararat Weather on Facebook, Twitter and Google +

Help support ongoing costs by checking out the ads





Follow @AraratWeather